Year,Month,Day,Hour,Minute,Value (Times are PST for temperature in C)
2018,09,17,00,00,11.70
2018,09,17,00,01,11.70
2018,09,17,00,02,11.70
2018,09,17,00,03,11.70
2018,09,17,00,04,11.70
2018,09,17,00,05,11.70
2018,09,17,00,06,11.70
2018,09,17,00,07,11.70
2018,09,17,00,08,11.60
2018,09,17,00,09,11.60
2018,09,17,00,10,11.60
2018,09,17,00,11,11.60
2018,09,17,00,12,11.60
2018,09,17,00,13,11.60
2018,09,17,00,14,11.60
2018,09,17,00,15,11.60
2018,09,17,00,16,11.60
2018,09,17,00,17,11.50
2018,09,17,00,18,11.50
2018,09,17,00,19,11.50
2018,09,17,00,20,11.60
2018,09,17,00,21,11.60
2018,09,17,00,22,11.60
2018,09,17,00,23,11.60
2018,09,17,00,24,11.60
2018,09,17,00,25,11.60
2018,09,17,00,26,11.50
2018,09,17,00,27,11.50
2018,09,17,00,28,11.50
2018,09,17,00,29,11.50
2018,09,17,00,30,11.50
2018,09,17,00,31,11.50
2018,09,17,00,32,11.50
2018,09,17,00,33,11.40
2018,09,17,00,34,11.40
2018,09,17,00,35,11.40
2018,09,17,00,36,11.40
2018,09,17,00,37,11.40
2018,09,17,00,38,11.30
2018,09,17,00,39,11.30
2018,09,17,00,40,11.30
2018,09,17,00,41,11.30
2018,09,17,00,42,11.30
2018,09,17,00,43,11.30
2018,09,17,00,44,11.30
2018,09,17,00,45,11.30
2018,09,17,00,46,11.30
2018,09,17,00,47,11.30
2018,09,17,00,48,11.30
2018,09,17,00,49,11.30
2018,09,17,00,50,11.30
2018,09,17,00,51,11.20
2018,09,17,00,52,11.20
2018,09,17,00,53,11.20
2018,09,17,00,54,11.20
2018,09,17,00,55,11.20
2018,09,17,00,56,11.20
2018,09,17,00,57,11.20
2018,09,17,00,58,11.20
2018,09,17,00,59,11.20
2018,09,17,01,00,11.20
2018,09,17,01,01,11.20
2018,09,17,01,02,11.20
2018,09,17,01,03,11.10
2018,09,17,01,04,11.10
2018,09,17,01,05,11.10
2018,09,17,01,06,11.10
2018,09,17,01,07,11.00
2018,09,17,01,08,11.00
2018,09,17,01,09,11.00
2018,09,17,01,10,10.90
2018,09,17,01,11,10.90
2018,09,17,01,12,10.90
2018,09,17,01,13,10.90
2018,09,17,01,14,10.80
2018,09,17,01,15,10.80
2018,09,17,01,16,10.80
2018,09,17,01,17,10.80
2018,09,17,01,18,10.80
2018,09,17,01,19,10.70
2018,09,17,01,20,10.70
2018,09,17,01,21,10.70
2018,09,17,01,22,10.70
2018,09,17,01,23,10.70
2018,09,17,01,24,10.70
2018,09,17,01,25,10.70
2018,09,17,01,26,10.70
2018,09,17,01,27,10.70
2018,09,17,01,28,10.70
2018,09,17,01,29,10.70
2018,09,17,01,30,10.70
2018,09,17,01,31,10.70
2018,09,17,01,32,10.70
2018,09,17,01,33,10.70
2018,09,17,01,34,10.70
2018,09,17,01,35,10.70
2018,09,17,01,36,10.70
2018,09,17,01,37,10.70
2018,09,17,01,38,10.70
2018,09,17,01,39,10.70
2018,09,17,01,40,10.70
2018,09,17,01,41,10.70
2018,09,17,01,42,10.70
2018,09,17,01,43,10.60
2018,09,17,01,44,10.60
2018,09,17,01,45,10.60
2018,09,17,01,46,10.60
2018,09,17,01,47,10.60
2018,09,17,01,48,10.60
2018,09,17,01,49,10.50
2018,09,17,01,50,10.50
2018,09,17,01,51,10.50
2018,09,17,01,52,10.40
2018,09,17,01,53,10.40
2018,09,17,01,54,10.40
2018,09,17,01,55,10.40
2018,09,17,01,56,10.50
2018,09,17,01,57,10.50
2018,09,17,01,58,10.50
2018,09,17,01,59,10.60
2018,09,17,02,00,10.60
2018,09,17,02,01,10.60
2018,09,17,02,02,10.60
2018,09,17,02,03,10.70
2018,09,17,02,04,10.70
2018,09,17,02,05,10.70
2018,09,17,02,06,10.70
2018,09,17,02,07,10.60
2018,09,17,02,08,10.60
2018,09,17,02,09,10.60
2018,09,17,02,10,10.70
2018,09,17,02,11,10.60
2018,09,17,02,12,10.60
2018,09,17,02,13,10.70
2018,09,17,02,14,10.60
2018,09,17,02,15,10.60
2018,09,17,02,16,10.60
2018,09,17,02,17,10.60
2018,09,17,02,18,10.60
2018,09,17,02,19,10.70
2018,09,17,02,20,10.60
2018,09,17,02,21,10.60
2018,09,17,02,22,10.60
2018,09,17,02,23,10.60
2018,09,17,02,24,10.60
2018,09,17,02,25,10.60
2018,09,17,02,26,10.60
2018,09,17,02,27,10.50
2018,09,17,02,28,10.50
2018,09,17,02,29,10.50
2018,09,17,02,30,10.40
2018,09,17,02,31,10.40
2018,09,17,02,32,10.40
2018,09,17,02,33,10.30
2018,09,17,02,34,10.30
2018,09,17,02,35,10.30
2018,09,17,02,36,10.30
2018,09,17,02,37,10.30
2018,09,17,02,38,10.30
2018,09,17,02,39,10.30
2018,09,17,02,40,10.30
2018,09,17,02,41,10.20
2018,09,17,02,42,10.20
2018,09,17,02,43,10.20
2018,09,17,02,44,10.20
2018,09,17,02,45,10.20
2018,09,17,02,46,10.20
2018,09,17,02,47,10.20
2018,09,17,02,48,10.20
2018,09,17,02,49,10.20
2018,09,17,02,50,10.20
2018,09,17,02,51,10.10
2018,09,17,02,52,10.10
2018,09,17,02,53,10.10
2018,09,17,02,54,10.10
2018,09,17,02,55,10.10
2018,09,17,02,56,10.10
2018,09,17,02,57,10.10
2018,09,17,02,58,10.10
2018,09,17,02,59,10.10
2018,09,17,03,00,10.10
2018,09,17,03,01,10.10
2018,09,17,03,02,10.10
2018,09,17,03,03,10.10
2018,09,17,03,04,10.10
2018,09,17,03,05,10.10
2018,09,17,03,06,10.10
2018,09,17,03,07,10.10
2018,09,17,03,08,10.10
2018,09,17,03,09,10.10
2018,09,17,03,10,10.10
2018,09,17,03,11,10.10
2018,09,17,03,12,10.10
2018,09,17,03,13,10.10
2018,09,17,03,14,10.10
2018,09,17,03,15,10.10
2018,09,17,03,16,10.10
2018,09,17,03,17,10.10
2018,09,17,03,18,10.00
2018,09,17,03,19,10.00
2018,09,17,03,20,9.90
2018,09,17,03,21,9.90
2018,09,17,03,22,9.80
2018,09,17,03,23,9.80
2018,09,17,03,24,9.80
2018,09,17,03,25,9.80
2018,09,17,03,26,9.80
2018,09,17,03,27,9.90
2018,09,17,03,28,9.90
2018,09,17,03,29,9.90
2018,09,17,03,30,9.90
2018,09,17,03,31,9.90
2018,09,17,03,32,9.90
2018,09,17,03,33,9.90
2018,09,17,03,34,9.90
2018,09,17,03,35,9.90
2018,09,17,03,36,9.90
2018,09,17,03,37,9.90
2018,09,17,03,38,9.90
2018,09,17,03,39,9.90
2018,09,17,03,40,9.90
2018,09,17,03,41,9.90
2018,09,17,03,42,9.90
2018,09,17,03,43,9.90
2018,09,17,03,44,9.90
2018,09,17,03,45,9.90
2018,09,17,03,46,9.90
2018,09,17,03,47,9.90
2018,09,17,03,48,9.90
2018,09,17,03,49,9.90
2018,09,17,03,50,9.90
2018,09,17,03,51,9.90
2018,09,17,03,52,9.80
2018,09,17,03,53,9.80
2018,09,17,03,54,9.70
2018,09,17,03,55,9.70
2018,09,17,03,56,9.70
2018,09,17,03,57,9.70
2018,09,17,03,58,9.60
2018,09,17,03,59,9.60
2018,09,17,04,00,9.60
2018,09,17,04,01,9.50
2018,09,17,04,02,9.50
2018,09,17,04,03,9.40
2018,09,17,04,04,9.40
2018,09,17,04,05,9.40
2018,09,17,04,06,9.30
2018,09,17,04,07,9.30
2018,09,17,04,08,9.30
2018,09,17,04,09,9.30
2018,09,17,04,10,9.30
2018,09,17,04,11,9.30
2018,09,17,04,12,9.20
2018,09,17,04,13,9.20
2018,09,17,04,14,9.20
2018,09,17,04,15,9.10
2018,09,17,04,16,9.10
2018,09,17,04,17,9.00
2018,09,17,04,18,9.00
2018,09,17,04,19,8.90
2018,09,17,04,20,8.90
2018,09,17,04,21,8.90
2018,09,17,04,22,8.80
2018,09,17,04,23,8.80
2018,09,17,04,24,8.80
2018,09,17,04,25,8.70
2018,09,17,04,26,8.70
2018,09,17,04,27,8.70
2018,09,17,04,28,8.60
2018,09,17,04,29,8.60
2018,09,17,04,30,8.50
2018,09,17,04,31,8.50
2018,09,17,04,32,8.40
2018,09,17,04,33,8.30
2018,09,17,04,34,8.30
2018,09,17,04,35,8.20
2018,09,17,04,36,8.20
2018,09,17,04,37,8.20
2018,09,17,04,38,8.20
2018,09,17,04,39,8.10
2018,09,17,04,40,8.10
2018,09,17,04,41,8.10
2018,09,17,04,42,8.00
2018,09,17,04,43,8.00
2018,09,17,04,44,8.00
2018,09,17,04,45,8.00
2018,09,17,04,46,8.00
2018,09,17,04,47,8.00
2018,09,17,04,48,8.00
2018,09,17,04,49,8.00
2018,09,17,04,50,8.00
2018,09,17,04,51,8.00
2018,09,17,04,52,7.90
2018,09,17,04,53,7.90
2018,09,17,04,54,7.90
2018,09,17,04,55,7.80
2018,09,17,04,56,7.80
2018,09,17,04,57,7.80
2018,09,17,04,58,7.80
2018,09,17,04,59,7.70
2018,09,17,05,00,7.70
2018,09,17,05,01,7.60
2018,09,17,05,02,7.50
2018,09,17,05,03,7.50
2018,09,17,05,04,7.40
2018,09,17,05,05,7.30
2018,09,17,05,06,7.30
2018,09,17,05,07,7.20
2018,09,17,05,08,7.20
2018,09,17,05,09,7.10
2018,09,17,05,10,7.10
2018,09,17,05,11,7.10
2018,09,17,05,12,7.10
2018,09,17,05,13,7.00
2018,09,17,05,14,7.00
2018,09,17,05,15,7.00
2018,09,17,05,16,7.00
2018,09,17,05,17,6.90
2018,09,17,05,18,6.90
2018,09,17,05,19,7.00
2018,09,17,05,20,7.00
2018,09,17,05,21,6.90
2018,09,17,05,22,6.90
2018,09,17,05,23,6.90
2018,09,17,05,24,6.80
2018,09,17,05,25,6.80
2018,09,17,05,26,6.70
2018,09,17,05,27,6.70
2018,09,17,05,28,6.70
2018,09,17,05,29,6.60
2018,09,17,05,30,6.60
2018,09,17,05,31,6.60
2018,09,17,05,32,6.50
2018,09,17,05,33,6.50
2018,09,17,05,34,6.40
2018,09,17,05,35,6.40
2018,09,17,05,36,6.40
2018,09,17,05,37,6.40
2018,09,17,05,38,6.40
2018,09,17,05,39,6.40
2018,09,17,05,40,6.40
2018,09,17,05,41,6.40
2018,09,17,05,42,6.40
2018,09,17,05,43,6.40
2018,09,17,05,44,6.40
2018,09,17,05,45,6.40
2018,09,17,05,46,6.30
2018,09,17,05,47,6.30
2018,09,17,05,48,6.30
2018,09,17,05,49,6.20
2018,09,17,05,50,6.20
2018,09,17,05,51,6.20
2018,09,17,05,52,6.20
2018,09,17,05,53,6.10
2018,09,17,05,54,6.10
2018,09,17,05,55,6.10
2018,09,17,05,56,6.10
2018,09,17,05,57,6.00
2018,09,17,05,58,6.00
2018,09,17,05,59,6.00
2018,09,17,06,00,6.00
2018,09,17,06,01,5.90
2018,09,17,06,02,5.90
2018,09,17,06,03,5.90
2018,09,17,06,04,5.90
2018,09,17,06,05,5.90
2018,09,17,06,06,5.90
2018,09,17,06,07,5.90
2018,09,17,06,08,5.90
2018,09,17,06,09,5.90
2018,09,17,06,10,5.90
2018,09,17,06,11,5.80
2018,09,17,06,12,5.80
2018,09,17,06,13,5.80
2018,09,17,06,14,5.80
2018,09,17,06,15,5.80
2018,09,17,06,16,5.80
2018,09,17,06,17,5.80
2018,09,17,06,18,5.80
2018,09,17,06,19,5.70
2018,09,17,06,20,5.70
2018,09,17,06,21,5.70
2018,09,17,06,22,5.70
2018,09,17,06,23,5.70
2018,09,17,06,24,5.60
2018,09,17,06,25,5.60
2018,09,17,06,26,5.60
2018,09,17,06,27,5.60
2018,09,17,06,28,5.50
2018,09,17,06,29,5.50
2018,09,17,06,30,5.50
2018,09,17,06,31,5.50
2018,09,17,06,32,5.50
2018,09,17,06,33,5.50
2018,09,17,06,34,5.50
2018,09,17,06,35,5.50
2018,09,17,06,36,5.50
2018,09,17,06,37,5.50
2018,09,17,06,38,5.50
2018,09,17,06,39,5.50
2018,09,17,06,40,5.50
2018,09,17,06,41,5.50
2018,09,17,06,42,5.50
2018,09,17,06,43,5.40
2018,09,17,06,44,5.40
2018,09,17,06,45,5.40
2018,09,17,06,46,5.40
2018,09,17,06,47,5.40
2018,09,17,06,48,5.40
2018,09,17,06,49,5.40
2018,09,17,06,50,5.30
2018,09,17,06,51,5.30
2018,09,17,06,52,5.30
2018,09,17,06,53,5.30
2018,09,17,06,54,5.30
2018,09,17,06,55,5.30
2018,09,17,06,56,5.30
2018,09,17,06,57,5.20
2018,09,17,06,58,5.20
2018,09,17,06,59,5.20
2018,09,17,07,00,5.20
2018,09,17,07,01,5.20
2018,09,17,07,02,5.20
2018,09,17,07,03,5.20
2018,09,17,07,04,5.20
2018,09,17,07,05,5.20
2018,09,17,07,06,5.20
2018,09,17,07,07,5.20
2018,09,17,07,08,5.20
2018,09,17,07,09,5.20
2018,09,17,07,10,5.20
2018,09,17,07,11,5.20
2018,09,17,07,12,5.20
2018,09,17,07,13,5.20
2018,09,17,07,14,5.20
2018,09,17,07,15,5.10
2018,09,17,07,16,5.10
2018,09,17,07,17,5.10
2018,09,17,07,18,5.10
2018,09,17,07,19,5.10
2018,09,17,07,20,5.10
2018,09,17,07,21,5.10
2018,09,17,07,22,5.10
2018,09,17,07,23,5.10
2018,09,17,07,24,5.10
2018,09,17,07,25,5.10
2018,09,17,07,26,5.10
2018,09,17,07,27,5.10
2018,09,17,07,28,5.10
2018,09,17,07,29,5.20
2018,09,17,07,30,5.20
2018,09,17,07,31,5.20
2018,09,17,07,32,5.20
2018,09,17,07,33,5.20
2018,09,17,07,34,5.20
2018,09,17,07,35,5.20
2018,09,17,07,36,5.20
2018,09,17,07,37,5.30
2018,09,17,07,38,5.30
2018,09,17,07,39,5.30
2018,09,17,07,40,5.30
2018,09,17,07,41,5.30
2018,09,17,07,42,5.40
2018,09,17,07,43,5.40
2018,09,17,07,44,5.50
2018,09,17,07,45,5.50
2018,09,17,07,46,5.60
2018,09,17,07,47,5.60
2018,09,17,07,48,5.70
2018,09,17,07,49,5.70
2018,09,17,07,50,5.80
2018,09,17,07,51,5.80
2018,09,17,07,52,5.90
2018,09,17,07,53,5.90
2018,09,17,07,54,5.90
2018,09,17,07,55,6.00
2018,09,17,07,56,6.00
2018,09,17,07,57,6.10
2018,09,17,07,58,6.10
2018,09,17,07,59,6.20
2018,09,17,08,00,6.20
2018,09,17,08,01,6.30
2018,09,17,08,02,6.30
2018,09,17,08,03,6.30
2018,09,17,08,04,6.40
2018,09,17,08,05,6.40
2018,09,17,08,06,6.50
2018,09,17,08,07,6.60
2018,09,17,08,08,6.60
2018,09,17,08,09,6.70
2018,09,17,08,10,6.80
2018,09,17,08,11,6.90
2018,09,17,08,12,7.00
2018,09,17,08,13,7.00
2018,09,17,08,14,7.10
2018,09,17,08,15,7.20
2018,09,17,08,16,7.30
2018,09,17,08,17,7.30
2018,09,17,08,18,7.40
2018,09,17,08,19,7.50
2018,09,17,08,20,7.50
2018,09,17,08,21,7.60
2018,09,17,08,22,7.70
2018,09,17,08,23,7.80
2018,09,17,08,24,7.80
2018,09,17,08,25,7.90
2018,09,17,08,26,8.00
2018,09,17,08,27,8.00
2018,09,17,08,28,8.10
2018,09,17,08,29,8.20
2018,09,17,08,30,8.20
2018,09,17,08,31,8.30
2018,09,17,08,32,8.40
2018,09,17,08,33,8.40
2018,09,17,08,34,8.50
2018,09,17,08,35,8.60
2018,09,17,08,36,8.70
2018,09,17,08,37,8.80
2018,09,17,08,38,8.90
2018,09,17,08,39,9.00
2018,09,17,08,40,9.10
2018,09,17,08,41,9.10
2018,09,17,08,42,9.10
2018,09,17,08,43,9.20
2018,09,17,08,44,9.20
2018,09,17,08,45,9.20
2018,09,17,08,46,9.20
2018,09,17,08,47,9.30
2018,09,17,08,48,9.30
2018,09,17,08,49,9.30
2018,09,17,08,50,9.40
2018,09,17,08,51,9.40
2018,09,17,08,52,9.50
2018,09,17,08,53,9.60
2018,09,17,08,54,9.70
2018,09,17,08,55,9.70
2018,09,17,08,56,9.70
2018,09,17,08,57,9.80
2018,09,17,08,58,9.80
2018,09,17,08,59,9.90
2018,09,17,09,00,9.90
2018,09,17,09,01,9.90
2018,09,17,09,02,10.00
2018,09,17,09,03,10.10
2018,09,17,09,04,10.20
2018,09,17,09,05,10.20
2018,09,17,09,06,10.30
2018,09,17,09,07,10.40
2018,09,17,09,08,10.50
2018,09,17,09,09,10.60
2018,09,17,09,10,10.70
2018,09,17,09,11,10.70
2018,09,17,09,12,10.70
2018,09,17,09,13,10.80
2018,09,17,09,14,10.80
2018,09,17,09,15,10.80
2018,09,17,09,16,10.80
2018,09,17,09,17,10.80
2018,09,17,09,18,10.80
2018,09,17,09,19,10.80
2018,09,17,09,20,10.90
2018,09,17,09,21,10.90
2018,09,17,09,22,10.90
2018,09,17,09,23,10.90
2018,09,17,09,24,11.00
2018,09,17,09,25,11.00
2018,09,17,09,26,11.10
2018,09,17,09,27,11.20
2018,09,17,09,28,11.40
2018,09,17,09,29,11.50
2018,09,17,09,30,11.70
2018,09,17,09,31,11.80
2018,09,17,09,32,11.90
2018,09,17,09,33,12.00
2018,09,17,09,34,12.10
2018,09,17,09,35,12.20
2018,09,17,09,36,12.30
2018,09,17,09,37,12.30
2018,09,17,09,38,12.30
2018,09,17,09,39,12.30
2018,09,17,09,40,12.30
2018,09,17,09,41,12.40
2018,09,17,09,42,12.50
2018,09,17,09,43,12.60
2018,09,17,09,44,12.60
2018,09,17,09,45,12.70
2018,09,17,09,46,12.70
2018,09,17,09,47,12.80
2018,09,17,09,48,12.80
2018,09,17,09,49,12.80
2018,09,17,09,50,12.80
2018,09,17,09,51,12.80
2018,09,17,09,52,12.90
2018,09,17,09,53,12.90
2018,09,17,09,54,13.00
2018,09,17,09,55,13.00
2018,09,17,09,56,13.10
2018,09,17,09,57,13.20
2018,09,17,09,58,13.30
2018,09,17,09,59,13.40
2018,09,17,10,00,13.50
2018,09,17,10,01,13.60
2018,09,17,10,02,13.60
2018,09,17,10,03,13.70
2018,09,17,10,04,13.70
2018,09,17,10,05,13.80
2018,09,17,10,06,13.80
2018,09,17,10,07,13.80
2018,09,17,10,08,13.80
2018,09,17,10,09,13.90
2018,09,17,10,10,13.90
2018,09,17,10,11,13.90
2018,09,17,10,12,13.90
2018,09,17,10,13,13.90
2018,09,17,10,14,13.90
2018,09,17,10,15,13.90
2018,09,17,10,16,14.00
2018,09,17,10,17,14.00
2018,09,17,10,18,14.00
2018,09,17,10,19,14.00
2018,09,17,10,20,14.10
2018,09,17,10,21,14.10
2018,09,17,10,22,14.10
2018,09,17,10,23,14.20
2018,09,17,10,24,14.20
2018,09,17,10,25,14.30
2018,09,17,10,26,14.30
2018,09,17,10,27,14.30
2018,09,17,10,28,14.30
2018,09,17,10,29,14.30
2018,09,17,10,30,14.30
2018,09,17,10,31,14.30
2018,09,17,10,32,14.30
2018,09,17,10,33,14.20
2018,09,17,10,34,14.20
2018,09,17,10,35,14.20
2018,09,17,10,36,14.20
2018,09,17,10,37,14.20
2018,09,17,10,38,14.30
2018,09,17,10,39,14.30
2018,09,17,10,40,14.30
2018,09,17,10,41,14.30
2018,09,17,10,42,14.30
2018,09,17,10,43,14.40
2018,09,17,10,44,14.50
2018,09,17,10,45,14.50
2018,09,17,10,46,14.50
2018,09,17,10,47,14.40
2018,09,17,10,48,14.20
2018,09,17,10,49,14.10
2018,09,17,10,50,14.00
2018,09,17,10,51,13.90
2018,09,17,10,52,13.90
2018,09,17,10,53,13.80
2018,09,17,10,54,13.80
2018,09,17,10,55,13.70
2018,09,17,10,56,13.70
2018,09,17,10,57,13.60
2018,09,17,10,58,13.60
2018,09,17,10,59,13.60
2018,09,17,11,00,13.60
2018,09,17,11,01,13.70
2018,09,17,11,02,13.70
2018,09,17,11,03,13.80
2018,09,17,11,04,13.80
2018,09,17,11,05,13.90
2018,09,17,11,06,13.90
2018,09,17,11,07,13.90
2018,09,17,11,08,14.00
2018,09,17,11,09,14.00
2018,09,17,11,10,14.00
2018,09,17,11,11,14.00
2018,09,17,11,12,14.00
2018,09,17,11,13,14.00
2018,09,17,11,14,13.90
2018,09,17,11,15,13.90
2018,09,17,11,16,13.90
2018,09,17,11,17,13.90
2018,09,17,11,18,14.00
2018,09,17,11,19,14.00
2018,09,17,11,20,14.10
2018,09,17,11,21,14.10
2018,09,17,11,22,14.10
2018,09,17,11,23,14.10
2018,09,17,11,24,14.20
2018,09,17,11,25,14.20
2018,09,17,11,26,14.30
2018,09,17,11,27,14.30
2018,09,17,11,28,14.40
2018,09,17,11,29,14.50
2018,09,17,11,30,14.50
2018,09,17,11,31,14.50
2018,09,17,11,32,14.50
2018,09,17,11,33,14.40
2018,09,17,11,34,14.40
2018,09,17,11,35,14.40
2018,09,17,11,36,14.40
2018,09,17,11,37,14.40
2018,09,17,11,38,14.40
2018,09,17,11,39,14.30
2018,09,17,11,40,14.30
2018,09,17,11,41,14.30
2018,09,17,11,42,14.30
2018,09,17,11,43,14.30
2018,09,17,11,44,14.30
2018,09,17,11,45,14.30
2018,09,17,11,46,14.40
2018,09,17,11,47,14.40
2018,09,17,11,48,14.50
2018,09,17,11,49,14.60
2018,09,17,11,50,14.70
2018,09,17,11,51,14.80
2018,09,17,11,52,14.80
2018,09,17,11,53,14.80
2018,09,17,11,54,14.90
2018,09,17,11,55,14.90
2018,09,17,11,56,14.90
2018,09,17,11,57,14.90
2018,09,17,11,58,14.90
2018,09,17,11,59,15.00
2018,09,17,12,00,15.10
2018,09,17,12,01,15.10
2018,09,17,12,02,15.10
2018,09,17,12,03,15.10
2018,09,17,12,04,15.00
2018,09,17,12,05,15.00
2018,09,17,12,06,14.90
2018,09,17,12,07,14.80
2018,09,17,12,08,14.70
2018,09,17,12,09,14.70
2018,09,17,12,10,14.70
2018,09,17,12,11,14.60
2018,09,17,12,12,14.60
2018,09,17,12,13,14.50
2018,09,17,12,14,14.50
2018,09,17,12,15,14.40
2018,09,17,12,16,14.40
2018,09,17,12,17,14.40
2018,09,17,12,18,14.40
2018,09,17,12,19,14.50
2018,09,17,12,20,14.50
2018,09,17,12,21,14.60
2018,09,17,12,22,14.60
2018,09,17,12,23,14.70
2018,09,17,12,24,14.60
2018,09,17,12,25,14.60
2018,09,17,12,26,14.60
2018,09,17,12,27,14.60
2018,09,17,12,28,14.60
2018,09,17,12,29,14.60
2018,09,17,12,30,14.60
2018,09,17,12,31,14.60
2018,09,17,12,32,14.60
2018,09,17,12,33,14.60
2018,09,17,12,34,14.70
2018,09,17,12,35,14.70
2018,09,17,12,36,14.70
2018,09,17,12,37,14.70
2018,09,17,12,38,14.70
2018,09,17,12,39,14.70
2018,09,17,12,40,14.60
2018,09,17,12,41,14.60
2018,09,17,12,42,14.50
2018,09,17,12,43,14.50
2018,09,17,12,44,14.40
2018,09,17,12,45,14.40
2018,09,17,12,46,14.40
2018,09,17,12,47,14.40
2018,09,17,12,48,14.40
2018,09,17,12,49,14.40
2018,09,17,12,50,14.40
2018,09,17,12,51,14.40
2018,09,17,12,52,14.30
2018,09,17,12,53,14.30
2018,09,17,12,54,14.30
2018,09,17,12,55,14.30
2018,09,17,12,56,14.30
2018,09,17,12,57,14.30
2018,09,17,12,58,14.20
2018,09,17,12,59,14.20
2018,09,17,13,00,14.20
2018,09,17,13,01,14.30
2018,09,17,13,02,14.30
2018,09,17,13,03,14.30
2018,09,17,13,04,14.40
2018,09,17,13,05,14.50
2018,09,17,13,06,14.50
2018,09,17,13,07,14.60
2018,09,17,13,08,14.70
2018,09,17,13,09,14.80
2018,09,17,13,10,14.80
2018,09,17,13,11,14.90
2018,09,17,13,12,14.90
2018,09,17,13,13,14.90
2018,09,17,13,14,15.00
2018,09,17,13,15,15.00
2018,09,17,13,16,15.00
2018,09,17,13,17,15.00
2018,09,17,13,18,15.10
2018,09,17,13,19,15.20
2018,09,17,13,20,15.20
2018,09,17,13,21,15.20
2018,09,17,13,22,15.20
2018,09,17,13,23,15.20
2018,09,17,13,24,15.20
2018,09,17,13,25,15.30
2018,09,17,13,26,15.30
2018,09,17,13,27,15.40
2018,09,17,13,28,15.40
2018,09,17,13,29,15.40
2018,09,17,13,30,15.40
2018,09,17,13,31,15.40
2018,09,17,13,32,15.40
2018,09,17,13,33,15.40
2018,09,17,13,34,15.40
2018,09,17,13,35,15.40
2018,09,17,13,36,15.40
2018,09,17,13,37,15.40
2018,09,17,13,38,15.40
2018,09,17,13,39,15.40
2018,09,17,13,40,15.40
2018,09,17,13,41,15.40
2018,09,17,13,42,15.40
2018,09,17,13,43,15.30
2018,09,17,13,44,15.30
2018,09,17,13,45,15.20
2018,09,17,13,46,15.20
2018,09,17,13,47,15.30
2018,09,17,13,48,15.30
2018,09,17,13,49,15.30
2018,09,17,13,50,15.30
2018,09,17,13,51,15.30
2018,09,17,13,52,15.40
2018,09,17,13,53,15.50
2018,09,17,13,54,15.50
2018,09,17,13,55,15.40
2018,09,17,13,56,15.40
2018,09,17,13,57,15.40
2018,09,17,13,58,15.40
2018,09,17,13,59,15.40
2018,09,17,14,00,15.40
2018,09,17,14,01,15.30
2018,09,17,14,02,15.30
2018,09,17,14,03,15.40
2018,09,17,14,04,15.40
2018,09,17,14,05,15.50
2018,09,17,14,06,15.50
2018,09,17,14,07,15.60
2018,09,17,14,08,15.60
2018,09,17,14,09,15.60
2018,09,17,14,10,15.50
2018,09,17,14,11,15.40
2018,09,17,14,12,15.40
2018,09,17,14,13,15.40
2018,09,17,14,14,15.30
2018,09,17,14,15,15.30
2018,09,17,14,16,15.30
2018,09,17,14,17,15.20
2018,09,17,14,18,15.20
2018,09,17,14,19,15.20
2018,09,17,14,20,15.20
2018,09,17,14,21,15.20
2018,09,17,14,22,15.10
2018,09,17,14,23,15.10
2018,09,17,14,24,15.00
2018,09,17,14,25,15.00
2018,09,17,14,26,15.00
2018,09,17,14,27,15.10
2018,09,17,14,28,15.10
2018,09,17,14,29,15.20
2018,09,17,14,30,15.20
2018,09,17,14,31,15.20
2018,09,17,14,32,15.20
2018,09,17,14,33,15.20
2018,09,17,14,34,15.20
2018,09,17,14,35,15.10
2018,09,17,14,36,15.20
2018,09,17,14,37,15.20
2018,09,17,14,38,15.30
2018,09,17,14,39,15.30
2018,09,17,14,40,15.40
2018,09,17,14,41,15.50
2018,09,17,14,42,15.50
2018,09,17,14,43,15.60
2018,09,17,14,44,15.60
2018,09,17,14,45,15.60
2018,09,17,14,46,15.60
2018,09,17,14,47,15.60
2018,09,17,14,48,15.70
2018,09,17,14,49,15.70
2018,09,17,14,50,15.70
2018,09,17,14,51,15.80
2018,09,17,14,52,15.80
2018,09,17,14,53,15.90
2018,09,17,14,54,15.90
2018,09,17,14,55,16.00
2018,09,17,14,56,16.00
2018,09,17,14,57,16.00
2018,09,17,14,58,16.00
2018,09,17,14,59,15.90
2018,09,17,15,00,15.90
2018,09,17,15,01,15.90
2018,09,17,15,02,15.90
2018,09,17,15,03,15.90
2018,09,17,15,04,15.90
2018,09,17,15,05,15.90
2018,09,17,15,06,15.90
2018,09,17,15,07,15.90
2018,09,17,15,08,16.00
2018,09,17,15,09,16.00
2018,09,17,15,10,16.00
2018,09,17,15,11,16.00
2018,09,17,15,12,15.90
2018,09,17,15,13,15.90
2018,09,17,15,14,15.90
2018,09,17,15,15,15.80
2018,09,17,15,16,15.80
2018,09,17,15,17,15.80
2018,09,17,15,18,15.80
2018,09,17,15,19,15.90
2018,09,17,15,20,15.90
2018,09,17,15,21,15.90
2018,09,17,15,22,15.90
2018,09,17,15,23,16.00
2018,09,17,15,24,16.00
2018,09,17,15,25,16.00
2018,09,17,15,26,16.10
2018,09,17,15,27,16.10
2018,09,17,15,28,16.10
2018,09,17,15,29,16.10
2018,09,17,15,30,16.10
2018,09,17,15,31,16.10
2018,09,17,15,32,16.10
2018,09,17,15,33,16.20
2018,09,17,15,34,16.20
2018,09,17,15,35,16.20
2018,09,17,15,36,16.20
2018,09,17,15,37,16.20
2018,09,17,15,38,16.20
2018,09,17,15,39,16.20
2018,09,17,15,40,16.20
2018,09,17,15,41,16.20
2018,09,17,15,42,16.30
2018,09,17,15,43,16.40
2018,09,17,15,44,16.40
2018,09,17,15,45,16.40
2018,09,17,15,46,16.40
2018,09,17,15,47,16.40
2018,09,17,15,48,16.30
2018,09,17,15,49,16.30
2018,09,17,15,50,16.30
2018,09,17,15,51,16.30
2018,09,17,15,52,16.30
2018,09,17,15,53,16.30
2018,09,17,15,54,16.20
2018,09,17,15,55,16.20
2018,09,17,15,56,16.20
2018,09,17,15,57,16.20
2018,09,17,15,58,16.20
2018,09,17,15,59,16.20
2018,09,17,16,00,16.20
2018,09,17,16,01,16.10
2018,09,17,16,02,16.10
2018,09,17,16,03,16.00
2018,09,17,16,04,16.00
2018,09,17,16,05,15.90
2018,09,17,16,06,15.90
2018,09,17,16,07,15.90
2018,09,17,16,08,15.80
2018,09,17,16,09,15.70
2018,09,17,16,10,15.70
2018,09,17,16,11,15.60
2018,09,17,16,12,15.60
2018,09,17,16,13,15.60
2018,09,17,16,14,15.60
2018,09,17,16,15,15.60
2018,09,17,16,16,15.60
2018,09,17,16,17,15.60
2018,09,17,16,18,15.60
2018,09,17,16,19,15.60
2018,09,17,16,20,15.60
2018,09,17,16,21,15.70
2018,09,17,16,22,15.70
2018,09,17,16,23,15.80
2018,09,17,16,24,15.90
2018,09,17,16,25,15.90
2018,09,17,16,26,16.00
2018,09,17,16,27,16.00
2018,09,17,16,28,16.10
2018,09,17,16,29,16.10
2018,09,17,16,30,16.10
2018,09,17,16,31,16.10
2018,09,17,16,32,16.10
2018,09,17,16,33,16.10
2018,09,17,16,34,16.10
2018,09,17,16,35,16.00
2018,09,17,16,36,16.00
2018,09,17,16,37,16.00
2018,09,17,16,38,16.00
2018,09,17,16,39,16.00
2018,09,17,16,40,16.00
2018,09,17,16,41,16.00
2018,09,17,16,42,15.90
2018,09,17,16,43,15.90
2018,09,17,16,44,15.90
2018,09,17,16,45,15.90
2018,09,17,16,46,16.00
2018,09,17,16,47,15.90
2018,09,17,16,48,15.90
2018,09,17,16,49,15.90
2018,09,17,16,50,16.00
2018,09,17,16,51,16.00
2018,09,17,16,52,16.00
2018,09,17,16,53,16.00
2018,09,17,16,54,16.00
2018,09,17,16,55,16.00
2018,09,17,16,56,16.00
2018,09,17,16,57,16.10
2018,09,17,16,58,16.10
2018,09,17,16,59,16.00
2018,09,17,17,00,16.00
2018,09,17,17,01,16.00
2018,09,17,17,02,16.10
2018,09,17,17,03,16.10
2018,09,17,17,04,16.10
2018,09,17,17,05,16.10
2018,09,17,17,06,16.10
2018,09,17,17,07,16.10
2018,09,17,17,08,16.10
2018,09,17,17,09,16.10
2018,09,17,17,10,16.10
2018,09,17,17,11,16.10
2018,09,17,17,12,16.10
2018,09,17,17,13,16.20
2018,09,17,17,14,16.20
2018,09,17,17,15,16.20
2018,09,17,17,16,16.20
2018,09,17,17,17,16.20
2018,09,17,17,18,16.20
2018,09,17,17,19,16.30
2018,09,17,17,20,16.30
2018,09,17,17,21,16.30
2018,09,17,17,22,16.30
2018,09,17,17,23,16.30
2018,09,17,17,24,16.30
2018,09,17,17,25,16.30
2018,09,17,17,26,16.30
2018,09,17,17,27,16.30
2018,09,17,17,28,16.20
2018,09,17,17,29,16.20
2018,09,17,17,30,16.20
2018,09,17,17,31,16.10
2018,09,17,17,32,16.10
2018,09,17,17,33,16.00
2018,09,17,17,34,15.90